Time,TemperatureF,DewpointF,PressureIn,WindDirection,WindDirectionDegrees,WindSpeedMPH,WindSpeedGustMPH,Humidity,HourlyPrecipIn,Conditions,Clouds,dailyrainin,SolarRadiationWatts/m^2,SoftwareType,DateUTC
2013-04-23 00:03:00,58.2,52.1,29.95,SE,132,3.5,3.5,80,0.00,CLR,,0.00,0.0,WeatherDisplay:10.37,2013-04-23 07:03:00,
2013-04-23 00:08:00,58.2,52.1,29.94,ESE,105,3.5,3.5,80,0.00,CLR,,0.00,0.0,WeatherDisplay:10.37,2013-04-23 07:08:00,
2013-04-23 00:13:00,58.1,52.0,29.95,ESE,103,2.3,2.3,80,0.00,CLR,,0.00,0.0,WeatherDisplay:10.37,2013-04-23 07:13:00,
2013-04-23 00:18:00,58.2,52.1,29.94,SE,125,7.0,7.0,80,0.00,CLR,,0.00,0.0,WeatherDisplay:10.37,2013-04-23 07:18:00,
2013-04-23 00:23:00,58.1,52.0,29.94,SE,127,4.0,4.0,80,0.00,CLR,,0.00,0.0,WeatherDisplay:10.37,2013-04-23 07:23:00,
2013-04-23 00:28:00,58.0,51.9,29.94,SE,128,3.5,3.5,80,0.00,CLR,,0.00,0.0,WeatherDisplay:10.37,2013-04-23 07:28:00,
2013-04-23 00:33:00,58.0,51.9,29.94,SSW,193,3.5,3.5,80,0.00,CLR,,0.00,0.0,WeatherDisplay:10.37,2013-04-23 07:33:00,
2013-04-23 00:38:00,58.0,51.9,29.94,South,182,3.5,3.5,80,0.00,CLR,,0.00,0.0,WeatherDisplay:10.37,2013-04-23 07:38:00,
2013-04-23 00:43:00,58.0,51.9,29.94,SSE,167,4.0,4.0,80,0.00,CLR,,0.00,0.0,WeatherDisplay:10.37,2013-04-23 07:43:00,
2013-04-23 00:48:00,58.0,51.9,29.94,SSE,161,1.1,1.1,80,0.00,CLR,,0.00,0.0,WeatherDisplay:10.37,2013-04-23 07:48:00,
2013-04-23 00:53:00,58.0,51.9,29.94,SE,142,6.0,6.0,80,0.00,CLR,,0.00,0.0,WeatherDisplay:10.37,2013-04-23 07:53:00,
2013-04-23 00:58:00,57.9,51.8,29.94,SE,140,3.5,3.5,80,0.00,CLR,,0.00,0.0,WeatherDisplay:10.37,2013-04-23 07:58:00,
2013-04-23 01:03:00,57.8,51.7,29.94,SE,140,1.1,0.0,80,0.00,CLR,,0.00,0.0,WeatherDisplay:10.37,2013-04-23 08:03:00,
2013-04-23 01:08:00,57.9,51.8,29.93,SE,140,3.5,3.5,80,0.00,CLR,,0.00,0.0,WeatherDisplay:10.37,2013-04-23 08:08:00,
2013-04-23 01:13:00,57.9,51.8,29.93,SSE,150,3.5,3.5,80,0.00,CLR,,0.00,0.0,WeatherDisplay:10.37,2013-04-23 08:13:00,
2013-04-23 01:18:00,57.9,51.4,29.93,SSE,155,4.6,4.6,79,0.00,CLR,,0.00,0.0,WeatherDisplay:10.37,2013-04-23 08:18:00,
2013-04-23 01:23:00,57.9,51.8,29.93,SSE,155,4.0,4.0,80,0.00,CLR,,0.00,0.0,WeatherDisplay:10.37,2013-04-23 08:23:00,
2013-04-23 01:28:00,57.9,51.4,29.93,SE,143,3.5,3.5,79,0.00,CLR,,0.00,0.0,WeatherDisplay:10.37,2013-04-23 08:28:00,
2013-04-23 01:33:00,57.9,51.4,29.93,ESE,116,3.5,3.5,79,0.00,CLR,,0.00,0.0,WeatherDisplay:10.37,2013-04-23 08:33:00,
2013-04-23 01:38:00,57.9,51.4,29.93,ESE,113,3.5,3.5,79,0.00,CLR,,0.00,0.0,WeatherDisplay:10.37,2013-04-23 08:38:00,
2013-04-23 01:43:00,57.9,51.4,29.93,SSE,159,5.8,5.8,79,0.00,CLR,,0.00,0.0,WeatherDisplay:10.37,2013-04-23 08:43:00,
2013-04-23 01:48:00,57.8,51.3,29.93,SSE,159,0.0,0.0,79,0.00,CLR,,0.00,0.0,WeatherDisplay:10.37,2013-04-23 08:48:00,
2013-04-23 01:53:00,57.8,51.3,29.93,SSE,159,1.1,1.1,79,0.00,CLR,,0.00,0.0,WeatherDisplay:10.37,2013-04-23 08:53:00,
2013-04-23 01:58:00,57.8,51.3,29.92,SSE,159,1.0,0.0,79,0.00,CLR,,0.00,0.0,WeatherDisplay:10.37,2013-04-23 08:58:00,
2013-04-23 02:03:00,57.8,51.3,29.92,SSE,159,1.1,1.1,79,0.00,CLR,,0.00,0.0,WeatherDisplay:10.37,2013-04-23 09:03:00,
2013-04-23 02:08:00,57.8,51.3,29.92,SSE,161,5.0,5.0,79,0.00,CLR,,0.00,0.0,WeatherDisplay:10.37,2013-04-23 09:08:00,
2013-04-23 02:13:00,57.8,51.3,29.92,SSE,157,3.5,3.5,79,0.00,CLR,,0.00,0.0,WeatherDisplay:10.37,2013-04-23 09:13:00,
2013-04-23 02:18:00,57.9,51.1,29.92,SSE,158,4.0,4.0,78,0.00,CLR,,0.00,0.0,WeatherDisplay:10.37,2013-04-23 09:18:00,
2013-04-23 02:23:00,57.8,51.0,29.92,SSE,160,3.5,3.5,78,0.00,CLR,,0.00,0.0,WeatherDisplay:10.37,2013-04-23 09:23:00,
2013-04-23 02:28:00,57.9,51.1,29.92,SSE,160,3.5,3.5,78,0.00,CLR,,0.00,0.0,WeatherDisplay:10.37,2013-04-23 09:28:00,
2013-04-23 02:33:00,57.9,51.1,29.92,SSE,157,5.0,5.0,78,0.00,CLR,,0.00,0.0,WeatherDisplay:10.37,2013-04-23 09:33:00,
2013-04-23 02:38:00,57.8,51.0,29.92,SSE,155,7.0,7.0,78,0.00,CLR,,0.00,0.0,WeatherDisplay:10.37,2013-04-23 09:38:00,
2013-04-23 02:43:00,57.8,51.0,29.91,SSE,160,4.0,4.0,78,0.00,CLR,,0.00,0.0,WeatherDisplay:10.37,2013-04-23 09:43:00,
2013-04-23 02:48:00,57.8,51.0,29.91,SSE,160,1.1,1.1,78,0.00,CLR,,0.00,0.0,WeatherDisplay:10.37,2013-04-23 09:48:00,
2013-04-23 02:54:00,57.7,50.9,29.91,SSE,160,3.5,3.5,78,0.00,CLR,,0.00,0.0,WeatherDisplay:10.37,2013-04-23 09:54:00,
2013-04-23 02:59:00,57.6,50.8,29.91,SSE,161,4.6,4.6,78,0.00,CLR,,0.00,0.0,WeatherDisplay:10.37,2013-04-23 09:59:00,
2013-04-23 03:04:00,57.6,50.8,29.91,SSE,166,5.8,5.8,78,0.00,CLR,,0.00,0.0,WeatherDisplay:10.37,2013-04-23 10:04:00,
2013-04-23 03:09:00,57.5,50.7,29.91,ESE,122,3.5,3.5,78,0.00,CLR,,0.00,0.0,WeatherDisplay:10.37,2013-04-23 10:09:00,
2013-04-23 03:14:00,57.5,50.7,29.91,ESE,122,2.3,2.3,78,0.00,CLR,,0.00,0.0,WeatherDisplay:10.37,2013-04-23 10:14:00,
2013-04-23 03:19:00,57.5,50.7,29.91,ESE,122,1.1,0.0,78,0.00,CLR,,0.00,0.0,WeatherDisplay:10.37,2013-04-23 10:19:00,
2013-04-23 03:24:00,57.5,50.7,29.91,ESE,122,4.0,4.0,78,0.00,CLR,,0.00,0.0,WeatherDisplay:10.37,2013-04-23 10:24:00,
2013-04-23 03:29:00,57.6,50.8,29.91,ESE,122,3.5,3.5,78,0.00,CLR,,0.00,0.0,WeatherDisplay:10.37,2013-04-23 10:29:00,
2013-04-23 03:34:00,57.6,50.8,29.91,ESE,122,0.0,0.0,78,0.00,CLR,,0.00,0.0,WeatherDisplay:10.37,2013-04-23 10:34:00,
2013-04-23 03:39:00,57.6,50.8,29.91,ESE,123,3.5,3.5,78,0.00,CLR,,0.00,0.0,WeatherDisplay:10.37,2013-04-23 10:39:00,
2013-04-23 03:44:00,57.7,50.9,29.91,ESE,123,3.5,3.5,78,0.00,CLR,,0.00,0.0,WeatherDisplay:10.37,2013-04-23 10:44:00,
2013-04-23 03:49:00,57.7,50.5,29.91,ESE,123,4.0,4.0,77,0.00,CLR,,0.00,0.0,WeatherDisplay:10.37,2013-04-23 10:49:00,
2013-04-23 03:54:00,57.8,50.6,29.91,ESE,123,3.5,3.5,77,0.00,CLR,,0.00,0.0,WeatherDisplay:10.37,2013-04-23 10:54:00,
2013-04-23 03:59:00,57.8,50.6,29.91,ESE,123,4.0,4.0,77,0.00,CLR,,0.00,0.0,WeatherDisplay:10.37,2013-04-23 10:59:00,
2013-04-23 04:04:00,57.9,50.7,29.91,ESE,123,4.0,4.0,77,0.00,CLR,,0.00,0.0,WeatherDisplay:10.37,2013-04-23 11:04:00,
2013-04-23 04:09:00,57.8,50.6,29.91,ESE,122,3.5,3.5,77,0.00,CLR,,0.00,0.0,WeatherDisplay:10.37,2013-04-23 11:09:00,
2013-04-23 04:14:00,57.8,50.6,29.91,ESE,122,3.5,3.5,77,0.00,CLR,,0.00,0.0,WeatherDisplay:10.37,2013-04-23 11:14:00,
2013-04-23 04:19:00,57.8,50.6,29.91,ESE,122,4.0,4.0,77,0.00,CLR,,0.00,0.0,WeatherDisplay:10.37,2013-04-23 11:19:00,
2013-04-23 04:24:00,57.9,50.7,29.91,ESE,121,6.9,6.9,77,0.00,CLR,,0.00,0.0,WeatherDisplay:10.37,2013-04-23 11:24:00,
2013-04-23 04:29:00,57.8,50.3,29.91,ESE,119,6.9,6.9,76,0.00,CLR,,0.00,0.0,WeatherDisplay:10.37,2013-04-23 11:29:00,
2013-04-23 04:34:00,57.8,50.3,29.91,ESE,118,3.5,3.5,76,0.00,CLR,,0.00,0.0,WeatherDisplay:10.37,2013-04-23 11:34:00,
2013-04-23 04:39:00,57.7,50.5,29.91,ESE,119,4.6,4.6,77,0.00,CLR,,0.00,0.0,WeatherDisplay:10.37,2013-04-23 11:39:00,
2013-04-23 04:44:00,57.7,50.5,29.91,ESE,119,3.5,3.5,77,0.00,CLR,,0.00,0.0,WeatherDisplay:10.37,2013-04-23 11:44:00,
2013-04-23 04:49:00,57.8,50.6,29.91,ESE,119,3.5,3.5,77,0.00,CLR,,0.00,0.0,WeatherDisplay:10.37,2013-04-23 11:49:00,
2013-04-23 04:54:00,57.8,50.3,29.91,ESE,123,5.0,5.0,76,0.00,CLR,,0.00,0.0,WeatherDisplay:10.37,2013-04-23 11:54:00,
2013-04-23 04:59:00,57.8,50.3,29.91,SE,140,6.9,6.9,76,0.00,CLR,,0.00,0.0,WeatherDisplay:10.37,2013-04-23 11:59:00,
2013-04-23 05:04:00,57.7,50.2,29.91,SSE,161,4.6,4.6,76,0.00,CLR,,0.00,0.0,WeatherDisplay:10.37,2013-04-23 12:04:00,
2013-04-23 05:09:00,57.7,50.2,29.91,SSE,148,2.3,2.3,76,0.00,CLR,,0.00,0.0,WeatherDisplay:10.37,2013-04-23 12:09:00,
2013-04-23 05:14:00,57.8,50.3,29.91,SSE,148,5.0,5.0,76,0.00,CLR,,0.00,0.0,WeatherDisplay:10.37,2013-04-23 12:14:00,
2013-04-23 05:19:00,57.8,50.3,29.91,East,98,5.0,5.0,76,0.00,CLR,,0.00,0.0,WeatherDisplay:10.37,2013-04-23 12:19:00,
2013-04-23 05:24:00,57.8,50.3,29.91,ESE,102,4.6,4.6,76,0.00,CLR,,0.00,0.0,WeatherDisplay:10.37,2013-04-23 12:24:00,
2013-04-23 05:29:00,57.8,50.3,29.91,ESE,102,2.3,2.3,76,0.00,CLR,,0.00,0.0,WeatherDisplay:10.37,2013-04-23 12:29:00,
2013-04-23 05:34:00,57.8,50.3,29.91,SSE,159,2.3,2.3,76,0.00,CLR,,0.00,0.0,WeatherDisplay:10.37,2013-04-23 12:34:00,
2013-04-23 05:39:00,57.8,50.3,29.91,SE,125,5.8,5.8,76,0.00,CLR,,0.00,0.0,WeatherDisplay:10.37,2013-04-23 12:39:00,
2013-04-23 05:44:00,57.8,50.3,29.92,East,98,5.0,5.0,76,0.00,CLR,,0.00,0.0,WeatherDisplay:10.37,2013-04-23 12:44:00,
2013-04-23 05:49:00,57.7,50.2,29.91,ESE,112,4.6,4.6,76,0.00,CLR,,0.00,0.0,WeatherDisplay:10.37,2013-04-23 12:49:00,
2013-04-23 05:54:00,57.7,50.2,29.92,ESE,112,1.1,0.0,76,0.00,CLR,,0.00,0.0,WeatherDisplay:10.37,2013-04-23 12:54:00,
2013-04-23 05:59:00,57.8,50.3,29.92,ESE,105,3.5,3.5,76,0.00,CLR,,0.00,0.0,WeatherDisplay:10.37,2013-04-23 12:59:00,
2013-04-23 06:04:00,57.7,50.2,29.92,ESE,105,2.3,2.3,76,0.00,CLR,,0.00,0.0,WeatherDisplay:10.37,2013-04-23 13:04:00,
2013-04-23 06:09:00,57.7,50.5,29.92,ESE,111,8.1,8.1,77,0.00,CLR,,0.00,0.0,WeatherDisplay:10.37,2013-04-23 13:09:00,
2013-04-23 06:14:00,57.8,50.6,29.92,East,101,5.0,5.0,77,0.00,CLR,,0.00,0.0,WeatherDisplay:10.37,2013-04-23 13:14:00,
2013-04-23 06:19:00,57.8,50.6,29.93,ESE,102,2.3,2.3,77,0.00,CLR,,0.00,0.0,WeatherDisplay:10.37,2013-04-23 13:19:00,
2013-04-23 06:24:00,57.9,50.7,29.93,East,100,3.5,3.5,77,0.00,CLR,,0.00,0.0,WeatherDisplay:10.37,2013-04-23 13:24:00,
2013-04-23 06:29:00,57.9,50.4,29.93,East,100,2.3,2.3,76,0.00,BKN,,0.00,5.0,WeatherDisplay:10.37,2013-04-23 13:29:00,
2013-04-23 06:34:00,57.9,50.4,29.93,East,101,3.5,3.5,76,0.00,BKN,,0.00,9.0,WeatherDisplay:10.37,2013-04-23 13:34:00,
2013-04-23 06:39:00,57.9,50.4,29.93,East,99,3.0,3.0,76,0.00,BKN,,0.00,14.0,WeatherDisplay:10.37,2013-04-23 13:39:00,
2013-04-23 06:44:00,58.0,50.5,29.93,ESE,113,4.0,4.0,76,0.00,BKN,,0.00,18.0,WeatherDisplay:10.37,2013-04-23 13:44:00,
2013-04-23 06:49:00,58.0,50.5,29.93,SE,135,3.5,3.5,76,0.00,BKN,,0.00,25.0,WeatherDisplay:10.37,2013-04-23 13:49:00,
2013-04-23 06:54:00,58.1,50.6,29.94,SSE,148,5.8,5.8,76,0.00,BKN,,0.00,28.0,WeatherDisplay:10.37,2013-04-23 13:54:00,
2013-04-23 06:59:00,58.2,50.7,29.94,SSE,162,4.0,4.0,76,0.00,BKN,,0.00,33.0,WeatherDisplay:10.37,2013-04-23 13:59:00,
2013-04-23 07:04:00,58.3,50.8,29.94,SSE,163,4.0,4.0,76,0.00,BKN,,0.00,37.0,WeatherDisplay:10.37,2013-04-23 14:04:00,
2013-04-23 07:09:00,58.4,50.5,29.94,SSE,165,3.5,3.5,75,0.00,BKN,,0.00,40.0,WeatherDisplay:10.37,2013-04-23 14:09:00,
2013-04-23 07:14:00,58.5,50.6,29.94,South,173,3.5,3.5,75,0.00,BKN,,0.00,46.0,WeatherDisplay:10.37,2013-04-23 14:14:00,
2013-04-23 07:19:00,58.5,50.6,29.94,SSE,167,4.0,4.0,75,0.00,BKN,,0.00,49.0,WeatherDisplay:10.37,2013-04-23 14:19:00,
2013-04-23 07:24:00,58.5,50.6,29.94,SSE,167,2.0,2.0,75,0.00,BKN,,0.00,47.0,WeatherDisplay:10.37,2013-04-23 14:24:00,
2013-04-23 07:29:00,58.5,50.6,29.94,SSE,167,2.0,2.0,75,0.00,BKN,,0.00,53.0,WeatherDisplay:10.37,2013-04-23 14:29:00,
2013-04-23 07:34:00,58.6,50.7,29.95,SSE,167,3.5,3.5,75,0.00,BKN,,0.00,44.0,WeatherDisplay:10.37,2013-04-23 14:34:00,
2013-04-23 07:39:00,58.6,50.7,29.95,South,190,5.8,5.8,75,0.00,BKN,,0.00,49.0,WeatherDisplay:10.37,2013-04-23 14:39:00,
2013-04-23 07:44:00,58.6,50.7,29.95,South,190,4.0,4.0,75,0.00,BKN,,0.00,51.0,WeatherDisplay:10.37,2013-04-23 14:44:00,
2013-04-23 07:49:00,58.6,50.7,29.95,South,177,3.5,3.5,75,0.00,BKN,,0.00,53.0,WeatherDisplay:10.37,2013-04-23 14:49:00,
2013-04-23 07:54:00,58.8,50.9,29.95,South,177,3.5,3.5,75,0.00,BKN,,0.00,60.0,WeatherDisplay:10.37,2013-04-23 14:54:00,
2013-04-23 07:59:00,58.7,50.8,29.95,South,177,3.5,3.5,75,0.00,BKN,,0.00,65.0,WeatherDisplay:10.37,2013-04-23 14:59:00,
2013-04-23 08:04:00,58.8,50.9,29.96,South,177,3.5,3.5,75,0.00,BKN,,0.00,76.0,WeatherDisplay:10.37,2013-04-23 15:04:00,
2013-04-23 08:09:00,58.9,50.6,29.96,South,177,2.3,2.3,74,0.00,BKN,,0.00,88.0,WeatherDisplay:10.37,2013-04-23 15:09:00,
2013-04-23 08:14:00,58.9,50.6,29.96,South,176,3.5,3.5,74,0.00,BKN,,0.00,90.0,WeatherDisplay:10.37,2013-04-23 15:14:00,
2013-04-23 08:19:00,58.9,50.6,29.96,South,176,2.0,2.0,74,0.00,BKN,,0.00,98.0,WeatherDisplay:10.37,2013-04-23 15:19:00,
2013-04-23 08:24:00,59.1,50.8,29.96,South,173,3.0,3.0,74,0.00,BKN,,0.00,114.0,WeatherDisplay:10.37,2013-04-23 15:24:00,
2013-04-23 08:29:00,59.1,50.5,29.96,South,172,2.3,2.3,73,0.00,BKN,,0.00,116.0,WeatherDisplay:10.37,2013-04-23 15:29:00,
2013-04-23 08:34:00,59.1,50.8,29.96,South,172,3.0,3.0,74,0.00,BKN,,0.00,132.0,WeatherDisplay:10.37,2013-04-23 15:34:00,
2013-04-23 08:39:00,59.1,50.5,29.96,South,184,4.0,4.0,73,0.00,BKN,,0.00,127.0,WeatherDisplay:10.37,2013-04-23 15:39:00,
2013-04-23 08:44:00,59.2,50.5,29.96,South,183,3.5,3.5,73,0.00,BKN,,0.00,134.0,WeatherDisplay:10.37,2013-04-23 15:44:00,
2013-04-23 08:49:00,59.3,50.3,29.97,South,180,4.0,4.0,72,0.00,BKN,,0.00,153.0,WeatherDisplay:10.37,2013-04-23 15:49:00,
2013-04-23 08:54:00,59.3,50.3,29.97,South,178,3.5,3.5,72,0.00,BKN,,0.00,186.0,WeatherDisplay:10.37,2013-04-23 15:54:00,
2013-04-23 08:59:00,59.6,50.6,29.97,South,176,5.0,5.0,72,0.00,BKN,,0.00,221.0,WeatherDisplay:10.37,2013-04-23 15:59:00,
2013-04-23 09:04:00,59.8,50.4,29.97,SSW,200,7.0,7.0,71,0.00,BKN,,0.00,237.0,WeatherDisplay:10.37,2013-04-23 16:04:00,
2013-04-23 09:09:00,59.9,50.5,29.97,SSW,201,4.6,4.6,71,0.00,SCT,,0.00,306.0,WeatherDisplay:10.37,2013-04-23 16:09:00,
2013-04-23 09:14:00,60.1,50.7,29.97,SSW,203,4.6,4.6,71,0.00,BKN,,0.00,281.0,WeatherDisplay:10.37,2013-04-23 16:14:00,
2013-04-23 09:19:00,60.4,51.0,29.97,SSW,200,6.0,6.0,71,0.00,BKN,,0.00,283.0,WeatherDisplay:10.37,2013-04-23 16:19:00,
2013-04-23 09:24:00,60.3,50.9,29.97,SSW,205,6.0,6.0,71,0.00,BKN,,0.00,272.0,WeatherDisplay:10.37,2013-04-23 16:24:00,
2013-04-23 09:29:00,60.3,51.2,29.97,SSW,213,6.9,6.9,72,0.00,BKN,,0.00,279.0,WeatherDisplay:10.37,2013-04-23 16:29:00,
2013-04-23 09:34:00,60.4,51.0,29.97,SW,221,6.9,6.9,71,0.00,BKN,,0.00,267.0,WeatherDisplay:10.37,2013-04-23 16:34:00,
2013-04-23 09:39:00,60.4,51.0,29.97,SW,218,5.8,5.8,71,0.00,BKN,,0.00,246.0,WeatherDisplay:10.37,2013-04-23 16:39:00,
2013-04-23 09:44:00,60.4,51.0,29.97,South,182,5.8,5.8,71,0.00,BKN,,0.00,239.0,WeatherDisplay:10.37,2013-04-23 16:44:00,
2013-04-23 09:49:00,60.6,51.1,29.97,SSW,195,4.6,4.6,71,0.00,BKN,,0.00,257.0,WeatherDisplay:10.37,2013-04-23 16:49:00,
2013-04-23 09:54:00,60.8,51.0,29.97,South,175,6.9,6.9,70,0.00,BKN,,0.00,244.0,WeatherDisplay:10.37,2013-04-23 16:54:00,
2013-04-23 09:59:00,60.7,50.9,29.98,South,187,6.9,6.9,70,0.00,BKN,,0.00,251.0,WeatherDisplay:10.37,2013-04-23 16:59:00,
2013-04-23 10:04:00,60.7,50.9,29.98,SSE,168,3.5,3.5,70,0.00,BKN,,0.00,248.0,WeatherDisplay:10.37,2013-04-23 17:04:00,
2013-04-23 10:09:00,60.9,51.0,29.98,SSW,205,6.0,6.0,70,0.00,BKN,,0.00,276.0,WeatherDisplay:10.37,2013-04-23 17:09:00,
2013-04-23 10:14:00,61.1,51.2,29.98,SSW,194,5.8,5.8,70,0.00,BKN,,0.00,276.0,WeatherDisplay:10.37,2013-04-23 17:14:00,
2013-04-23 10:19:00,61.3,51.0,29.98,South,170,6.9,6.9,69,0.00,BKN,,0.00,302.0,WeatherDisplay:10.37,2013-04-23 17:19:00,
2013-04-23 10:24:00,61.3,51.0,29.98,South,169,3.5,3.5,69,0.00,BKN,,0.00,323.0,WeatherDisplay:10.37,2013-04-23 17:24:00,
2013-04-23 10:29:00,61.7,51.0,29.98,South,188,6.9,6.9,68,0.00,BKN,,0.00,401.0,WeatherDisplay:10.37,2013-04-23 17:29:00,
2013-04-23 10:34:00,61.7,51.0,29.98,SSE,158,5.8,5.8,68,0.00,BKN,,0.00,376.0,WeatherDisplay:10.37,2013-04-23 17:34:00,
2013-04-23 10:39:00,61.7,51.0,29.98,SSW,210,4.6,4.6,68,0.00,BKN,,0.00,380.0,WeatherDisplay:10.37,2013-04-23 17:39:00,
2013-04-23 10:44:00,61.6,50.9,29.98,South,170,5.0,5.0,68,0.00,BKN,,0.00,413.0,WeatherDisplay:10.37,2013-04-23 17:44:00,
2013-04-23 10:49:00,61.8,51.1,29.98,West,266,4.6,4.6,68,0.00,BKN,,0.00,392.0,WeatherDisplay:10.37,2013-04-23 17:49:00,
2013-04-23 10:54:00,62.1,51.0,29.98,SSE,167,6.9,6.9,67,0.00,BKN,,0.00,367.0,WeatherDisplay:10.37,2013-04-23 17:54:00,
2013-04-23 10:59:00,62.3,51.2,29.98,SW,233,4.6,4.6,67,0.00,CLR,,0.00,812.0,WeatherDisplay:10.37,2013-04-23 17:59:00,
2013-04-23 11:04:00,62.9,51.8,29.98,SSE,161,5.0,5.0,67,0.00,FEW,,0.00,795.0,WeatherDisplay:10.37,2013-04-23 18:04:00,
2013-04-23 11:09:00,63.4,51.4,29.98,SE,134,5.0,5.0,65,0.00,FEW,,0.00,798.0,WeatherDisplay:10.37,2013-04-23 18:09:00,
2013-04-23 11:14:00,63.3,50.9,29.97,ESE,109,2.3,2.3,64,0.00,FEW,,0.00,791.0,WeatherDisplay:10.37,2013-04-23 18:14:00,
2013-04-23 11:19:00,63.7,51.3,29.97,SSE,167,5.0,5.0,64,0.00,FEW,,0.00,805.0,WeatherDisplay:10.37,2013-04-23 18:19:00,
2013-04-23 11:24:00,63.8,51.4,29.97,SSE,153,3.5,3.5,64,0.00,FEW,,0.00,805.0,WeatherDisplay:10.37,2013-04-23 18:24:00,
2013-04-23 11:29:00,64.2,51.3,29.97,SSE,164,3.5,3.5,63,0.00,FEW,,0.00,821.0,WeatherDisplay:10.37,2013-04-23 18:29:00,
2013-04-23 11:34:00,64.8,51.5,29.97,SSW,213,3.5,3.5,62,0.00,FEW,,0.00,828.0,WeatherDisplay:10.37,2013-04-23 18:34:00,
2013-04-23 11:39:00,65.2,51.4,29.97,SSE,165,5.8,5.8,61,0.00,FEW,,0.00,823.0,WeatherDisplay:10.37,2013-04-23 18:39:00,
2013-04-23 11:44:00,65.1,51.3,29.96,NE,44,4.6,4.6,61,0.00,FEW,,0.00,837.0,WeatherDisplay:10.37,2013-04-23 18:44:00,
2013-04-23 11:49:00,65.4,51.1,29.96,NE,55,3.5,3.5,60,0.00,FEW,,0.00,838.0,WeatherDisplay:10.37,2013-04-23 18:49:00,
2013-04-23 11:54:00,65.7,51.4,29.96,SSE,155,5.0,5.0,60,0.00,FEW,,0.00,831.0,WeatherDisplay:10.37,2013-04-23 18:54:00,
2013-04-23 11:59:00,65.6,51.3,29.95,NE,46,5.0,5.0,60,0.00,FEW,,0.00,838.0,WeatherDisplay:10.37,2013-04-23 18:59:00,
2013-04-23 12:04:00,65.6,51.8,29.95,East,101,4.6,4.6,61,0.00,FEW,,0.00,847.0,WeatherDisplay:10.37,2013-04-23 19:04:00,
2013-04-23 12:09:00,65.7,51.4,29.95,NE,55,7.0,7.0,60,0.00,FEW,,0.00,858.0,WeatherDisplay:10.37,2013-04-23 19:09:00,
2013-04-23 12:14:00,65.7,51.4,29.95,ENE,58,3.5,3.5,60,0.00,FEW,,0.00,860.0,WeatherDisplay:10.37,2013-04-23 19:14:00,
2013-04-23 12:19:00,66.8,52.0,29.95,SSW,205,4.6,4.6,59,0.00,FEW,,0.00,863.0,WeatherDisplay:10.37,2013-04-23 19:19:00,
2013-04-23 12:24:00,67.7,51.9,29.95,South,172,3.5,3.5,57,0.00,FEW,,0.00,865.0,WeatherDisplay:10.37,2013-04-23 19:24:00,
2013-04-23 12:29:00,68.3,52.0,29.94,West,265,4.6,4.6,56,0.00,FEW,,0.00,868.0,WeatherDisplay:10.37,2013-04-23 19:29:00,
2013-04-23 12:34:00,68.7,52.4,29.94,SW,216,3.5,3.5,56,0.00,FEW,,0.00,870.0,WeatherDisplay:10.37,2013-04-23 19:34:00,
2013-04-23 12:39:00,69.0,51.7,29.94,ESE,111,5.0,5.0,54,0.00,FEW,,0.00,872.0,WeatherDisplay:10.37,2013-04-23 19:39:00,
2013-04-23 12:44:00,69.2,51.3,29.93,SE,142,4.0,4.0,53,0.00,FEW,,0.00,870.0,WeatherDisplay:10.37,2013-04-23 19:44:00,
2013-04-23 12:49:00,69.5,51.6,29.93,SSE,154,4.6,4.6,53,0.00,FEW,,0.00,868.0,WeatherDisplay:10.37,2013-04-23 19:49:00,
2013-04-23 12:54:00,69.6,51.7,29.93,South,180,4.6,4.6,53,0.00,FEW,,0.00,867.0,WeatherDisplay:10.37,2013-04-23 19:54:00,
2013-04-23 12:59:00,69.7,51.8,29.93,WSW,240,3.5,3.5,53,0.00,FEW,,0.00,872.0,WeatherDisplay:10.37,2013-04-23 19:59:00,
2013-04-23 13:04:00,69.6,52.2,29.93,South,169,8.1,8.1,54,0.00,FEW,,0.00,868.0,WeatherDisplay:10.37,2013-04-23 20:04:00,
2013-04-23 13:09:00,69.7,52.3,29.92,South,186,5.0,5.0,54,0.00,FEW,,0.00,865.0,WeatherDisplay:10.37,2013-04-23 20:09:00,
2013-04-23 13:14:00,70.0,51.6,29.92,SE,134,8.1,8.1,52,0.00,FEW,,0.00,865.0,WeatherDisplay:10.37,2013-04-23 20:14:00,
2013-04-23 13:19:00,69.5,51.6,29.92,SSE,168,5.0,5.0,53,0.00,FEW,,0.00,860.0,WeatherDisplay:10.37,2013-04-23 20:19:00,
2013-04-23 13:24:00,70.0,52.6,29.92,SSE,165,4.0,4.0,54,0.00,FEW,,0.00,858.0,WeatherDisplay:10.37,2013-04-23 20:24:00,
2013-04-23 13:29:00,70.4,51.4,29.92,SE,143,4.6,4.6,51,0.00,FEW,,0.00,858.0,WeatherDisplay:10.37,2013-04-23 20:29:00,
2013-04-23 13:34:00,70.5,52.0,29.92,SE,143,2.3,2.3,52,0.00,FEW,,0.00,847.0,WeatherDisplay:10.37,2013-04-23 20:34:00,
2013-04-23 13:39:00,71.0,52.5,29.91,WSW,257,5.0,5.0,52,0.00,FEW,,0.00,833.0,WeatherDisplay:10.37,2013-04-23 20:39:00,
2013-04-23 13:44:00,71.9,52.8,29.91,WSW,238,6.9,6.9,51,0.00,FEW,,0.00,842.0,WeatherDisplay:10.37,2013-04-23 20:44:00,
2013-04-23 13:49:00,72.1,52.4,29.91,SW,221,9.2,9.2,50,0.00,FEW,,0.00,844.0,WeatherDisplay:10.37,2013-04-23 20:49:00,
2013-04-23 13:54:00,72.2,52.5,29.91,SSE,167,5.8,5.8,50,0.00,SCT,,0.00,652.0,WeatherDisplay:10.37,2013-04-23 20:54:00,
2013-04-23 13:59:00,72.2,52.5,29.90,ESE,116,6.9,6.9,50,0.00,SCT,,0.00,812.0,WeatherDisplay:10.37,2013-04-23 20:59:00,
2013-04-23 14:04:00,72.6,51.8,29.90,NE,51,4.6,4.6,48,0.00,FEW,,0.00,835.0,WeatherDisplay:10.37,2013-04-23 21:04:00,
2013-04-23 14:09:00,73.1,52.8,29.90,SSE,153,8.1,8.1,49,0.00,FEW,,0.00,828.0,WeatherDisplay:10.37,2013-04-23 21:09:00,
2013-04-23 14:14:00,72.6,52.9,29.89,West,268,6.0,6.0,50,0.00,FEW,,0.00,828.0,WeatherDisplay:10.37,2013-04-23 21:14:00,
2013-04-23 14:19:00,73.4,53.1,29.89,SSW,192,7.0,7.0,49,0.00,FEW,,0.00,840.0,WeatherDisplay:10.37,2013-04-23 21:19:00,
2013-04-23 14:24:00,73.1,53.4,29.89,SSE,158,10.4,10.4,50,0.00,FEW,,0.00,831.0,WeatherDisplay:10.37,2013-04-23 21:24:00,
2013-04-23 14:29:00,73.1,52.8,29.89,SSW,194,5.8,5.8,49,0.00,SCT,,0.00,592.0,WeatherDisplay:10.37,2013-04-23 21:29:00,
2013-04-23 14:34:00,72.9,53.2,29.89,SSE,164,5.8,5.8,50,0.00,SCT,,0.00,654.0,WeatherDisplay:10.37,2013-04-23 21:34:00,
2013-04-23 14:39:00,73.2,53.4,29.88,SSW,206,9.0,9.0,50,0.00,FEW,,0.00,812.0,WeatherDisplay:10.37,2013-04-23 21:39:00,
2013-04-23 14:44:00,73.0,53.3,29.88,South,174,8.1,8.1,50,0.00,CLR,,0.00,802.0,WeatherDisplay:10.37,2013-04-23 21:44:00,
2013-04-23 14:49:00,73.1,52.8,29.88,SE,142,5.0,5.0,49,0.00,FEW,,0.00,805.0,WeatherDisplay:10.37,2013-04-23 21:49:00,
2013-04-23 14:54:00,73.7,53.3,29.87,SSW,209,6.9,6.9,49,0.00,FEW,,0.00,735.0,WeatherDisplay:10.37,2013-04-23 21:54:00,
2013-04-23 14:59:00,74.0,53.6,29.87,SW,221,11.5,11.5,49,0.00,CLR,,0.00,777.0,WeatherDisplay:10.37,2013-04-23 21:59:00,
2013-04-23 15:04:00,74.4,53.4,29.87,SSW,207,6.9,6.9,48,0.00,CLR,,0.00,758.0,WeatherDisplay:10.37,2013-04-23 22:04:00,
2013-04-23 15:09:00,74.6,53.6,29.87,South,187,8.1,8.1,48,0.00,CLR,,0.00,740.0,WeatherDisplay:10.37,2013-04-23 22:09:00,
2013-04-23 15:14:00,75.4,53.2,29.87,SSW,206,7.0,7.0,46,0.00,CLR,,0.00,728.0,WeatherDisplay:10.37,2013-04-23 22:14:00,
2013-04-23 15:19:00,75.2,53.6,29.86,SW,227,7.0,7.0,47,0.00,CLR,,0.00,707.0,WeatherDisplay:10.37,2013-04-23 22:19:00,
2013-04-23 15:24:00,75.6,53.4,29.86,SSE,152,6.0,6.0,46,0.00,CLR,,0.00,693.0,WeatherDisplay:10.37,2013-04-23 22:24:00,
2013-04-23 15:29:00,75.9,53.6,29.86,SSW,205,5.0,5.0,46,0.00,CLR,,0.00,677.0,WeatherDisplay:10.37,2013-04-23 22:29:00,
2013-04-23 15:34:00,75.7,54.0,29.85,SSW,194,6.0,6.0,47,0.00,FEW,,0.00,657.0,WeatherDisplay:10.37,2013-04-23 22:34:00,
2013-04-23 15:39:00,76.2,53.9,29.85,SW,217,9.2,9.2,46,0.00,CLR,,0.00,652.0,WeatherDisplay:10.37,2013-04-23 22:39:00,
2013-04-23 15:44:00,74.7,53.1,29.85,South,188,12.7,12.7,47,0.00,CLR,,0.00,636.0,WeatherDisplay:10.37,2013-04-23 22:44:00,
2013-04-23 15:49:00,73.6,53.3,29.85,SSW,202,10.4,10.4,49,0.00,CLR,,0.00,599.0,WeatherDisplay:10.37,2013-04-23 22:49:00,
2013-04-23 15:54:00,73.5,53.7,29.85,SSW,205,8.1,8.1,50,0.00,CLR,,0.00,608.0,WeatherDisplay:10.37,2013-04-23 22:54:00,
2013-04-23 15:59:00,73.5,53.7,29.85,SW,219,11.5,11.5,50,0.00,CLR,,0.00,589.0,WeatherDisplay:10.37,2013-04-23 22:59:00,
2013-04-23 16:04:00,72.8,53.1,29.85,South,186,11.5,11.5,50,0.00,CLR,,0.00,577.0,WeatherDisplay:10.37,2013-04-23 23:04:00,
2013-04-23 16:09:00,72.5,53.3,29.85,SSW,213,9.2,9.2,51,0.00,CLR,,0.00,563.0,WeatherDisplay:10.37,2013-04-23 23:09:00,
2013-04-23 16:14:00,72.4,53.2,29.85,SSE,164,10.4,10.4,51,0.00,CLR,,0.00,547.0,WeatherDisplay:10.37,2013-04-23 23:14:00,
2013-04-23 16:19:00,72.5,53.3,29.84,SSW,198,9.2,9.2,51,0.00,CLR,,0.00,533.0,WeatherDisplay:10.37,2013-04-23 23:19:00,
2013-04-23 16:24:00,72.2,53.1,29.84,SSE,167,10.4,10.4,51,0.00,CLR,,0.00,519.0,WeatherDisplay:10.37,2013-04-23 23:24:00,
2013-04-23 16:29:00,72.2,53.6,29.84,SSE,159,8.0,8.0,52,0.00,CLR,,0.00,496.0,WeatherDisplay:10.37,2013-04-23 23:29:00,
2013-04-23 16:34:00,72.2,53.1,29.84,South,183,11.5,11.5,51,0.00,CLR,,0.00,485.0,WeatherDisplay:10.37,2013-04-23 23:34:00,
2013-04-23 16:39:00,72.7,53.5,29.84,SW,218,11.5,11.5,51,0.00,CLR,,0.00,469.0,WeatherDisplay:10.37,2013-04-23 23:39:00,
2013-04-23 16:44:00,73.1,53.4,29.84,SSW,211,10.4,10.4,50,0.00,CLR,,0.00,454.0,WeatherDisplay:10.37,2013-04-23 23:44:00,
2013-04-23 16:49:00,73.7,53.9,29.84,SSW,198,10.0,10.0,50,0.00,CLR,,0.00,441.0,WeatherDisplay:10.37,2013-04-23 23:49:00,
2013-04-23 16:54:00,73.3,53.5,29.84,SW,222,9.2,9.2,50,0.00,CLR,,0.00,427.0,WeatherDisplay:10.37,2013-04-23 23:54:00,
2013-04-23 16:59:00,73.1,53.4,29.84,SW,215,9.2,9.2,50,0.00,CLR,,0.00,408.0,WeatherDisplay:10.37,2013-04-23 23:59:00,
2013-04-23 17:04:00,73.3,53.5,29.84,WSW,253,8.1,8.1,50,0.00,CLR,,0.00,394.0,WeatherDisplay:10.37,2013-04-24 00:04:00,
2013-04-23 17:09:00,73.2,53.4,29.84,SSW,211,7.0,7.0,50,0.00,CLR,,0.00,376.0,WeatherDisplay:10.37,2013-04-24 00:09:00,
2013-04-23 17:14:00,73.0,53.8,29.84,WSW,255,9.0,9.0,51,0.00,CLR,,0.00,360.0,WeatherDisplay:10.37,2013-04-24 00:14:00,
2013-04-23 17:19:00,73.0,53.8,29.84,SSE,165,7.0,7.0,51,0.00,CLR,,0.00,343.0,WeatherDisplay:10.37,2013-04-24 00:19:00,
2013-04-23 17:24:00,72.2,53.6,29.84,SW,217,10.0,10.0,52,0.00,CLR,,0.00,329.0,WeatherDisplay:10.37,2013-04-24 00:24:00,
2013-04-23 17:29:00,71.9,53.8,29.84,South,171,6.9,6.9,53,0.00,CLR,,0.00,311.0,WeatherDisplay:10.37,2013-04-24 00:29:00,
2013-04-23 17:34:00,71.7,53.7,29.84,SSW,192,6.9,6.9,53,0.00,CLR,,0.00,294.0,WeatherDisplay:10.37,2013-04-24 00:34:00,
2013-04-23 17:39:00,71.1,53.6,29.84,SSW,200,11.5,11.5,54,0.00,CLR,,0.00,278.0,WeatherDisplay:10.37,2013-04-24 00:39:00,
2013-04-23 17:44:00,70.7,53.7,29.84,SSW,207,11.0,11.0,55,0.00,CLR,,0.00,260.0,WeatherDisplay:10.37,2013-04-24 00:44:00,
2013-04-23 17:49:00,69.9,53.5,29.84,SSE,150,6.9,6.9,56,0.00,CLR,,0.00,244.0,WeatherDisplay:10.37,2013-04-24 00:49:00,
2013-04-23 17:54:00,69.7,53.8,29.84,WSW,252,10.0,10.0,57,0.00,CLR,,0.00,229.0,WeatherDisplay:10.37,2013-04-24 00:54:00,
2013-04-23 17:59:00,70.2,53.8,29.85,West,276,10.4,10.4,56,0.00,CLR,,0.00,213.0,WeatherDisplay:10.37,2013-04-24 00:59:00,
2013-04-23 18:04:00,69.6,53.7,29.85,WSW,249,11.5,11.5,57,0.00,FEW,,0.00,195.0,WeatherDisplay:10.37,2013-04-24 01:04:00,
2013-04-23 18:09:00,69.3,53.9,29.85,WSW,257,9.2,9.2,58,0.00,FEW,,0.00,179.0,WeatherDisplay:10.37,2013-04-24 01:09:00,
2013-04-23 18:14:00,69.2,53.3,29.85,West,280,10.4,10.4,57,0.00,FEW,,0.00,162.0,WeatherDisplay:10.37,2013-04-24 01:14:00,
2013-04-23 18:19:00,68.1,53.7,29.85,WNW,295,11.5,11.5,60,0.00,FEW,,0.00,144.0,WeatherDisplay:10.37,2013-04-24 01:19:00,
2013-04-23 18:24:00,67.1,54.1,29.86,West,263,13.8,13.8,63,0.00,FEW,,0.00,125.0,WeatherDisplay:10.37,2013-04-24 01:24:00,
2013-04-23 18:29:00,66.5,54.4,29.86,West,271,13.0,13.0,65,0.00,SCT,,0.00,109.0,WeatherDisplay:10.37,2013-04-24 01:29:00,
2013-04-23 18:34:00,65.9,53.8,29.86,West,263,10.4,10.4,65,0.00,SCT,,0.00,86.0,WeatherDisplay:10.37,2013-04-24 01:34:00,
2013-04-23 18:39:00,65.6,54.3,29.86,WSW,258,9.2,9.2,67,0.00,BKN,,0.00,51.0,WeatherDisplay:10.37,2013-04-24 01:39:00,
2013-04-23 18:44:00,65.6,53.9,29.86,WSW,255,12.0,12.0,66,0.00,SCT,,0.00,62.0,WeatherDisplay:10.37,2013-04-24 01:44:00,
2013-04-23 18:49:00,65.0,54.2,29.86,West,281,9.2,9.2,68,0.00,SCT,,0.00,54.0,WeatherDisplay:10.37,2013-04-24 01:49:00,
2013-04-23 18:54:00,64.7,53.9,29.87,WSW,252,10.4,10.4,68,0.00,SCT,,0.00,46.0,WeatherDisplay:10.37,2013-04-24 01:54:00,
2013-04-23 18:59:00,64.4,54.0,29.87,West,277,10.0,10.0,69,0.00,SCT,,0.00,35.0,WeatherDisplay:10.37,2013-04-24 01:59:00,
2013-04-23 19:04:00,64.1,54.1,29.87,WSW,241,8.1,8.1,70,0.00,BKN,,0.00,28.0,WeatherDisplay:10.37,2013-04-24 02:04:00,
2013-04-23 19:09:00,63.7,53.7,29.86,West,269,10.4,10.4,70,0.00,BKN,,0.00,21.0,WeatherDisplay:10.37,2013-04-24 02:09:00,
2013-04-23 19:15:00,63.3,54.1,29.87,West,279,10.4,10.4,72,0.00,BKN,,0.00,14.0,WeatherDisplay:10.37,2013-04-24 02:15:00,
2013-04-23 19:20:00,62.9,53.7,29.87,WNW,286,9.2,9.2,72,0.00,BKN,,0.00,11.0,WeatherDisplay:10.37,2013-04-24 02:20:00,
2013-04-23 19:25:00,62.8,54.0,29.87,West,271,9.2,9.2,73,0.00,SCT,,0.00,7.0,WeatherDisplay:10.37,2013-04-24 02:25:00,
2013-04-23 19:31:00,62.7,53.9,29.87,West,272,7.0,7.0,73,0.00,CLR,,0.00,0.0,WeatherDisplay:10.37,2013-04-24 02:31:00,
2013-04-23 19:36:00,62.3,53.9,29.87,West,259,8.1,8.1,74,0.00,CLR,,0.00,0.0,WeatherDisplay:10.37,2013-04-24 02:36:00,
2013-04-23 19:41:00,62.0,53.6,29.88,WSW,257,8.0,8.0,74,0.00,CLR,,0.00,0.0,WeatherDisplay:10.37,2013-04-24 02:41:00,
2013-04-23 19:46:00,61.9,53.9,29.88,West,271,6.0,6.0,75,0.00,CLR,,0.00,0.0,WeatherDisplay:10.37,2013-04-24 02:46:00,
2013-04-23 19:51:00,61.6,53.6,29.88,West,263,5.8,5.8,75,0.00,CLR,,0.00,0.0,WeatherDisplay:10.37,2013-04-24 02:51:00,
2013-04-23 19:56:00,61.5,53.9,29.88,WSW,252,8.0,8.0,76,0.00,CLR,,0.00,0.0,WeatherDisplay:10.37,2013-04-24 02:56:00,
2013-04-23 20:01:00,61.1,53.5,29.88,West,262,8.1,8.1,76,0.00,CLR,,0.00,0.0,WeatherDisplay:10.37,2013-04-24 03:01:00,
2013-04-23 20:06:00,60.9,53.6,29.88,West,281,8.1,8.1,77,0.00,CLR,,0.00,0.0,WeatherDisplay:10.37,2013-04-24 03:06:00,
2013-04-23 20:11:00,60.7,53.8,29.89,WNW,284,9.2,9.2,78,0.00,CLR,,0.00,0.0,WeatherDisplay:10.37,2013-04-24 03:11:00,
2013-04-23 20:16:00,60.6,53.7,29.89,West,267,8.1,8.1,78,0.00,CLR,,0.00,0.0,WeatherDisplay:10.37,2013-04-24 03:16:00,
2013-04-23 20:21:00,60.7,53.8,29.89,WNW,290,6.9,6.9,78,0.00,CLR,,0.00,0.0,WeatherDisplay:10.37,2013-04-24 03:21:00,
2013-04-23 20:26:00,60.6,53.7,29.89,WNW,283,6.9,6.9,78,0.00,CLR,,0.00,0.0,WeatherDisplay:10.37,2013-04-24 03:26:00,
2013-04-23 20:31:00,60.4,53.9,29.90,WNW,288,6.9,6.9,79,0.00,CLR,,0.00,0.0,WeatherDisplay:10.37,2013-04-24 03:31:00,
2013-04-23 20:36:00,60.3,53.8,29.90,WNW,288,8.1,8.1,79,0.00,CLR,,0.00,0.0,WeatherDisplay:10.37,2013-04-24 03:36:00,
2013-04-23 20:41:00,60.1,53.6,29.90,West,271,5.8,5.8,79,0.00,CLR,,0.00,0.0,WeatherDisplay:10.37,2013-04-24 03:41:00,
2013-04-23 20:47:00,60.1,53.6,29.90,West,266,5.8,5.8,79,0.00,CLR,,0.00,0.0,WeatherDisplay:10.37,2013-04-24 03:47:00,
2013-04-23 20:52:00,60.0,53.5,29.90,West,267,6.0,6.0,79,0.00,CLR,,0.00,0.0,WeatherDisplay:10.37,2013-04-24 03:52:00,
2013-04-23 20:57:00,60.0,53.5,29.90,West,277,6.0,6.0,79,0.00,CLR,,0.00,0.0,WeatherDisplay:10.37,2013-04-24 03:57:00,
2013-04-23 21:01:00,59.9,53.4,29.91,West,274,5.8,5.8,79,0.00,CLR,,0.00,0.0,WeatherDisplay:10.37,2013-04-24 04:01:00,
2013-04-23 21:02:00,60.0,53.5,29.91,West,274,5.8,5.8,79,0.00,CLR,,0.00,0.0,WeatherDisplay:10.37,2013-04-24 04:02:00,
2013-04-23 21:07:00,59.8,53.3,29.91,WSW,258,8.1,8.1,79,0.00,CLR,,0.00,0.0,WeatherDisplay:10.37,2013-04-24 04:07:00,
2013-04-23 21:12:00,59.6,53.4,29.91,WSW,257,6.0,6.0,80,0.00,CLR,,0.00,0.0,WeatherDisplay:10.37,2013-04-24 04:12:00,
2013-04-23 21:17:00,59.6,53.4,29.91,WSW,257,4.6,4.6,80,0.00,CLR,,0.00,0.0,WeatherDisplay:10.37,2013-04-24 04:17:00,
2013-04-23 21:22:00,59.6,53.4,29.91,West,278,5.8,5.8,80,0.00,CLR,,0.00,0.0,WeatherDisplay:10.37,2013-04-24 04:22:00,
2013-04-23 21:27:00,59.6,53.4,29.91,West,281,5.0,5.0,80,0.00,CLR,,0.00,0.0,WeatherDisplay:10.37,2013-04-24 04:27:00,
2013-04-23 21:32:00,59.6,53.4,29.92,WNW,282,4.6,4.6,80,0.00,CLR,,0.00,0.0,WeatherDisplay:10.37,2013-04-24 04:32:00,
2013-04-23 21:37:00,59.5,53.3,29.92,West,274,7.0,7.0,80,0.00,CLR,,0.00,0.0,WeatherDisplay:10.37,2013-04-24 04:37:00,
2013-04-23 21:42:00,59.5,53.3,29.92,West,262,6.0,6.0,80,0.00,CLR,,0.00,0.0,WeatherDisplay:10.37,2013-04-24 04:42:00,
2013-04-23 21:47:00,59.4,53.2,29.92,West,267,5.8,5.8,80,0.00,CLR,,0.00,0.0,WeatherDisplay:10.37,2013-04-24 04:47:00,
2013-04-23 21:52:00,59.4,53.2,29.92,West,273,4.6,4.6,80,0.00,CLR,,0.00,0.0,WeatherDisplay:10.37,2013-04-24 04:52:00,
2013-04-23 21:57:00,59.3,53.1,29.92,West,263,7.0,7.0,80,0.00,CLR,,0.00,0.0,WeatherDisplay:10.37,2013-04-24 04:57:00,
2013-04-23 22:02:00,59.2,53.4,29.92,West,271,5.0,5.0,81,0.00,CLR,,0.00,0.0,WeatherDisplay:10.37,2013-04-24 05:02:00,
2013-04-23 22:07:00,59.2,53.4,29.93,West,271,3.5,3.5,81,0.00,CLR,,0.00,0.0,WeatherDisplay:10.37,2013-04-24 05:07:00,
2013-04-23 22:12:00,59.2,53.4,29.93,West,271,4.6,4.6,81,0.00,CLR,,0.00,0.0,WeatherDisplay:10.37,2013-04-24 05:12:00,
2013-04-23 22:17:00,59.1,53.3,29.93,West,271,4.6,4.6,81,0.00,CLR,,0.00,0.0,WeatherDisplay:10.37,2013-04-24 05:17:00,
2013-04-23 22:22:00,59.1,53.3,29.93,West,272,2.3,2.3,81,0.00,CLR,,0.00,0.0,WeatherDisplay:10.37,2013-04-24 05:22:00,
2013-04-23 22:27:00,59.1,53.3,29.93,West,272,2.3,2.3,81,0.00,CLR,,0.00,0.0,WeatherDisplay:10.37,2013-04-24 05:27:00,
2013-04-23 22:32:00,59.1,53.3,29.93,West,275,3.5,3.5,81,0.00,CLR,,0.00,0.0,WeatherDisplay:10.37,2013-04-24 05:32:00,
2013-04-23 22:37:00,59.2,53.4,29.93,West,275,3.5,3.5,81,0.00,CLR,,0.00,0.0,WeatherDisplay:10.37,2013-04-24 05:37:00,
2013-04-23 22:42:00,59.1,53.3,29.93,West,275,3.5,3.5,81,0.00,CLR,,0.00,0.0,WeatherDisplay:10.37,2013-04-24 05:42:00,
2013-04-23 22:47:00,59.1,53.3,29.93,West,275,3.5,3.5,81,0.00,CLR,,0.00,0.0,WeatherDisplay:10.37,2013-04-24 05:47:00,
2013-04-23 22:52:00,58.9,53.1,29.93,West,275,2.3,2.3,81,0.00,CLR,,0.00,0.0,WeatherDisplay:10.37,2013-04-24 05:52:00,
2013-04-23 22:57:00,58.9,53.1,29.93,West,275,3.5,3.5,81,0.00,CLR,,0.00,0.0,WeatherDisplay:10.37,2013-04-24 05:57:00,
2013-04-23 23:02:00,58.9,53.4,29.93,West,275,3.5,3.5,82,0.00,CLR,,0.00,0.0,WeatherDisplay:10.37,2013-04-24 06:02:00,
2013-04-23 23:07:00,59.0,53.2,29.93,West,275,4.0,4.0,81,0.00,CLR,,0.00,0.0,WeatherDisplay:10.37,2013-04-24 06:07:00,
2013-04-23 23:12:00,59.0,53.5,29.93,West,275,2.3,2.3,82,0.00,CLR,,0.00,0.0,WeatherDisplay:10.37,2013-04-24 06:12:00,
2013-04-23 23:17:00,59.0,53.2,29.93,West,275,3.5,3.5,81,0.00,CLR,,0.00,0.0,WeatherDisplay:10.37,2013-04-24 06:17:00,
2013-04-23 23:22:00,59.0,53.2,29.93,West,275,4.0,4.0,81,0.00,CLR,,0.00,0.0,WeatherDisplay:10.37,2013-04-24 06:22:00,
2013-04-23 23:27:00,58.9,53.4,29.93,West,274,4.0,4.0,82,0.00,CLR,,0.00,0.0,WeatherDisplay:10.37,2013-04-24 06:27:00,
2013-04-23 23:32:00,58.9,53.4,29.93,West,274,3.5,3.5,82,0.00,CLR,,0.00,0.0,WeatherDisplay:10.37,2013-04-24 06:32:00,
2013-04-23 23:37:00,59.0,53.5,29.93,West,274,3.5,3.5,82,0.00,CLR,,0.00,0.0,WeatherDisplay:10.37,2013-04-24 06:37:00,
2013-04-23 23:42:00,59.0,53.2,29.94,West,274,3.0,3.0,81,0.00,CLR,,0.00,0.0,WeatherDisplay:10.37,2013-04-24 06:42:00,
2013-04-23 23:47:00,59.1,53.3,29.94,West,278,4.0,4.0,81,0.00,CLR,,0.00,0.0,WeatherDisplay:10.37,2013-04-24 06:47:00,
2013-04-23 23:52:00,59.1,53.3,29.94,West,277,3.5,3.5,81,0.00,CLR,,0.00,0.0,WeatherDisplay:10.37,2013-04-24 06:52:00,
2013-04-23 23:57:00,59.1,53.3,29.94,West,277,2.3,2.3,81,0.00,CLR,,0.00,0.0,WeatherDisplay:10.37,2013-04-24 06:57:00,